Washington County, Minnesota, United States
Lat: 45.02N, Lon: 92.88W
Wx Zone: MNZ063
Local Info
Past Weather Observations for Today

NOTE: This archive is for the closest National Weather Service station to Washington County. Information may differ from the station used for current weather conditions.

Click here for Long-term Archive

Time Weather Temperature Dewpoint Humidity Pressure Winds Precip Visibility
16:53
Clear
73°F / 23°C 63°F / 17°C 69% 30.04 in
(1017 mb)
SE 3.5 mph
(SE 6 kph)
- 10SM
15:53
Clear
73°F / 23°C 63°F / 17°C 69% 30.04 in
(1017 mb)
SE 4.6 mph
(SE 7 kph)
- 10SM
14:53
Clear
72°F / 22°C 63°F / 17°C 73% 30.04 in
(1017 mb)
SE 4.6 mph
(SE 7 kph)
- 10SM
13:53
Clear
70°F / 21°C 61°F / 16°C 73% 30.06 in
(1018 mb)
ESE 6.9 mph
(ESE 11 kph)
- 10SM
12:53
Partly Cloudy
70°F / 21°C 61°F / 16°C 73% 30.06 in
(1018 mb)
E 5.8 mph
(E 9 kph)
- 10SM
11:53
Clear
66°F / 19°C 61°F / 16°C 83% 30.06 in
(1018 mb)
E 4.6 mph
(E 7 kph)
- 10SM
11:42
Partly Cloudy
64°F / 18°C 61°F / 16°C 88% 30.06 in
(1018 mb)
SE 4.6 mph
(SE 7 kph)
- 9SM
11:25
Overcast
64°F / 18°C 61°F / 16°C 88% 30.06 in
(1018 mb)
E 4.6 mph
(E 7 kph)
- 8SM
10:53
Overcast
64°F / 18°C 59°F / 15°C 83% 30.06 in
(1018 mb)
ENE 3.5 mph
(ENE 6 kph)
- 7SM
09:53
Overcast
61°F / 16°C 57°F / 14°C 88% 30.09 in
(1019 mb)
E 3.5 mph
(E 6 kph)
- 7SM
08:53
Overcast
Fog And Mist
59°F / 15°C 57°F / 14°C 94% 30.09 in
(1019 mb)
Calm - 5SM
07:53
Overcast
Fog And Mist
57°F / 14°C 55°F / 13°C 94% 30.06 in
(1018 mb)
SSE 5.8 mph
(SSE 9 kph)
- 5SM
06:53
Overcast
57°F / 14°C 55°F / 13°C 94% 30.09 in
(1019 mb)
ESE 3.5 mph
(ESE 6 kph)
- 8SM
06:17
Partly Cloudy
57°F / 14°C 54°F / 12°C 88% 30.06 in
(1018 mb)
E 5.8 mph
(E 9 kph)
- 9SM
05:53
Clear
55°F / 13°C 54°F / 12°C 94% 30.06 in
(1018 mb)
E 5.8 mph
(E 9 kph)
- 9SM
04:53
Clear
55°F / 13°C 54°F / 12°C 94% 30.06 in
(1018 mb)
Calm - 10SM
03:53
Clear
57°F / 14°C 55°F / 13°C 94% 30.04 in
(1017 mb)
ENE 4.6 mph
(ENE 7 kph)
- 10SM
02:53
Clear
57°F / 14°C 55°F / 13°C 94% 30.04 in
(1017 mb)
E 4.6 mph
(E 7 kph)
- 10SM
01:53
Clear
57°F / 14°C 55°F / 13°C 94% 30.04 in
(1017 mb)
NE 3.5 mph
(NE 6 kph)
- 10SM
00:53
Clear
57°F / 14°C 55°F / 13°C 94% 30.04 in
(1017 mb)
SE 5.8 mph
(SE 9 kph)
- 10SM
Time Weather Temperature Dewpoint Humidity Pressure Winds Precip Visibility


Weather for websites

WeatherForYou.com, LLC is not responsible for any damages or problems caused by this service. Current weather conditions are obtained from the closest station including government and personal stations which may have varying degrees of accuracy. Weather forecasts are derived from the NOAA NDFD. Like all things, this site belongs to Jesus Christ... He just trusts us to maintain it. If you have any questions or comments email webmaster@weatherforyou.com

Copyright © 2015, WeatherForYou.com LLC. All rights reserved.